Regional Weather Roundup
Issued by NWS

Home | Current Version | Previous Version | Graphics & Text | Print | Product List | Glossary On
Versions: 1 2 3 4 5 6 7 8 9 10 11 12 13 14 15 16 17 18 19 20 21 22 23 24 25 26 27 28 29 30 31 32 33 34 35 36 37 38 39 40 41 42 43 44 45 46 47 48 49 50
000
ASUS44 KMEG 030800
RWRTN
TENNESSEE HOURLY STATE WEATHER ROUNDUP
NATIONAL WEATHER SERVICE MEMPHIS TN
200 AM CST TUE MAR 03 2015

TNZ002-004-019-021-049-052-054-088>092-030900-
WEST TENNESSEE

CITY           SKY/WX    TMP DP  RH WIND       PRES   REMARKS
MEMPHIS INTL   DRZL/FOG  42  40  92 SE7       30.14F VSB 1
NWS MEMPHIS      N/A     41 N/A N/A MISG        N/A
JACKSON        CLOUDY    43  40  89 S6        30.15F FOG
DYERSBURG      CLOUDY    39  21  48 E5        30.15F
UNION CITY     CLOUDY    36  28  75 CALM      30.12F
PARIS          CLOUDY    37  27  65 SE6       30.13F WCI  33
LEXINGTON      CLOUDY    43  37  81 S6        30.15F
SAVANNAH       CLOUDY    43  43 100 CALM      30.17F
$$

TNZ008-025-027-028-033-062-065-066-030900-
NORTH MIDDLE TENNESSEE

CITY           SKY/WX    TMP DP  RH WIND       PRES   REMARKS
NASHVILLE      CLOUDY    43  31  62 S3        30.18F
CLARKSVILLE    CLOUDY    40  29  64 E3        30.16F
COOKEVILLE       N/A     45  37  76 CALM      30.16F
CROSSVILLE     CLOUDY    44  32  62 SE3       30.17F
$$

TNZ061-075-076-078-094-096-097-030900-
SOUTH MIDDLE TENNESSEE

CITY           SKY/WX    TMP DP  RH WIND       PRES   REMARKS
FAYETTEVILLE   CLOUDY    43  39  87 CALM        N/A
TULLAHOMA      CLOUDY    43  37  81 CALM      30.18F
WINCHESTER     CLOUDY    46  39  76 CALM      30.19F
COLUMBIA       CLOUDY    45  45 100 S3        30.16F
SHELBYVILLE    CLOUDY    43  39  87 CALM      30.19F
$$

TNZ017-018-042-046-047-030900-
NORTHEAST TENNESSEE

CITY           SKY/WX    TMP DP  RH WIND       PRES   REMARKS
TRI CITIES     CLOUDY    35  28  75 CALM      30.19F
ELIZABETHTON   PTSUNNY   36  28  75 NE6       30.19F WCI  31
$$

TNZ012-013-036-069-073-074-030900-
CENTRAL EAST TENNESSEE

CITY           SKY/WX    TMP DP  RH WIND       PRES   REMARKS
KNOXVILLE      CLOUDY    41  36  82 N5        30.21F
OAK RIDGE      CLOUDY    42  32  67 E3        30.22F
GATLINBURG     CLOUDY    37  36  93 CALM      30.19F
$$

TNZ083-085-099-030900-
SOUTHEAST TENNESSEE

CITY           SKY/WX    TMP DP  RH WIND       PRES   REMARKS
CHATTANOOGA    CLOUDY    46  38  73 CALM      30.22F
$$

SKY/WX REPORTED AS FAIR MEANS FEW OR NO CLOUDS BELOW
12 THOUSAND FEET.




USA.gov is the U.S. government's official web portal to all federal, state and local government web resources and services.